Garfield, KY (40140)

12:35 AM CDT on April 19, 2015 (GMT -0500)
Old Weldon | | Change Station
CLOSE
Current Station
Personal Weather Station
Location: Brandenburg, KY
Elevation: 636 ft
Nearby Weather Stations
Active Advisory: Flood Warning

Elev 636 ft 37.97 °N, 86.13 °W | Updated 40 seconds ago

Overcast
Overcast
65.2 °F
Feels Like 65.2 °F
N
1.0
Wind Variable Wind from East
Gusts 3.0 mph

Today
High -- | Low -- °F
--% Chance of Precip.
Yesterday
High -- | Low -- °F
Precip. -- in
6:04 AM 7:24 PM
New Moon, 0% visible
Pressure 29.86 in
Visibility 10.0 miles
Clouds Mostly Cloudy 8000 ft
Overcast 11000 ft
Dew Point 52 °F
Humidity 62%
Rainfall 0.00 in
Snow Depth Not available.
UV 0 out of 12
Pollen 11.20 out of 12
Air Quality Not available.
Flu Activity Local Activity
METAR KFTK 190458Z AUTO 06005KT 10SM BKN080 OVC110 20/09 A2987 RMK AO2 SLP112 T01970085 402620120

More Conditions Fewer Conditions

Pressure 29.86 in
Visibility 10.0 miles
Clouds Mostly Cloudy 8000 ft
Overcast 11000 ft
Dew Point 52 °F
Humidity 62%
Rainfall 0.00 in
Snow Depth Not available.
UV 0 out of 12
Pollen 11.20 out of 12
Air Quality Not available.
Flu Activity Local Activity
METAR KFTK 190458Z AUTO 06005KT 10SM BKN080 OVC110 20/09 A2987 RMK AO2 SLP112 T01970085 402620120

More Conditions Fewer Conditions

10-Day Weather Forecast

Almanac

Astronomy

Apr. 19, 2015 Rise Set
Actual Time
Civil Twilight
Nautical Twilight
Astronomical Twilight
Moon
Length of Visible Light
Length of Day
Tomorrow will be .
, % of the Moon is Illuminated

Today's Extremes

State Highs State Lows

Community

WunderPhotos

Upload Photos

1,814,725 photos uploaded!

WunderBlogs® & News

Nearby

Air Quality

  Air Quality AQ Index Pollutant
Not available.

Snow Depth

Station Depth Elevation

Earthquake Activity

City Distance Mag. Time & Date
Minimum magnitude displayed is 2.5.

Coastal Water Temperatures

Place Temperature

Stations

Nearby Weather Stations

Station Location Temp. Windchill Dew Point Humidity Wind Precip. Elev Updated Type
                   
Flood Warning
Statement as of 10:06 PM CDT on April 18, 2015

The Flood Warning continues for
the Ohio River at Cannelton lock.
* Until Monday afternoon.
* At 9:00 PM Saturday the stage was 42.3 feet.
* Flood stage is 42.0 feet.
* Minor flooding is occurring and minor flooding is forecast.
* Forecast... the river will remain near 42.3 feet through tonight
and begin a slow fall late tomorrow. The river will fall below
flood stage late Monday morning.
* Impact... at 42.0 feet... agricultural flooding begins near Cloverport
and Cannelton. Highway 66 floods near Derby and Dexter. Rocky Point
girl scout Camp is affected.
* Flood history... this crest compares to a previous crest of 41.6
feet on Feb 28 2003.


Lat... Lon 3822 8636 3796 8659 3794 8670 3783 8675
      3787 8652 3809 8636